Regional Weather Roundup
Issued by NWS State College, PA

Home | Current Version | Previous Version | Text Only | Print | Product List | Glossary Off
Versions: 1 2 3 4 5 6 7 8 9 10 11 12 13 14 15 16 17 18 19 20 21 22 23 24 25 26 27 28 29 30 31 32 33 34 35 36 37 38 39 40 41 42 43 44 45 46 47 48 49 50

000
ASUS41 KCTP 301310
RWRCTP

REGIONAL WEATHER ROUNDUP
NATIONAL WEATHER SERVICE STATE COLLEGE PA
900 AM EDT TUE AUG 30 2016

Note: "fair" indicates few or no clouds below 12,000 feet with no
significant weather and/or obstructions to visibility.

* = STATION THAT DOES NOT REPORT PRECIPITATION /E.G. RAIN...SNOW...ETC/
    THUNDER OR FOG.

PAZ002>004-007>009-013>016-020>023-029>032-301400-
WESTERN PENNSYLVANIA

CITY           SKY/WX    TMP DP  RH WIND       PRES   REMARKS
ERIE           SUNNY     69  61  75 S6        30.19S
MEADVILLE      SUNNY     66  59  78 E3        30.21F
FRANKLIN*        N/A     63  55  77 E5        30.22F
NEW CASTLE     FAIR      65  60  84 CALM      30.21S
BEAVER COUNTY  SUNNY     66  59  77 CALM      30.20F
BUTLER*        NOT AVBL
PITTSBURGH INT MOSUNNY   66  58  75 E3        30.19F
PITTSBURGH     SUNNY     66  59  78 E5        30.19F
INDIANA*       SUNNY     64  61  88 CALM      30.22F
LATROBE        MOSUNNY   61  61 100 CALM      30.20F
WASHINGTON CO* SUNNY     63  61  94 CALM      30.20S
$$

PAZ004>006-010>012-017>019-024>028-033>037-041-042-045-046-049>053-301400-
CENTRAL PENNSYLVANIA

CITY           SKY/WX    TMP DP  RH WIND       PRES   REMARKS
BRADFORD       SUNNY     64  61  90 CALM      30.24F
DUBOIS         SUNNY     66  58  75 E6        30.21F
CLEARFIELD     NOT AVBL
JOHNSTOWN      SUNNY     66  59  78 CALM      30.23F
ALTOONA        SUNNY     66  63  90 CALM      30.23S
STATE COLLEGE  SUNNY     63  61  94 CALM      30.22S
WILLIAMSPORT   SUNNY     67  60  78 W3        30.20S
SELINSGROVE    SUNNY     68  65  90 CALM      30.21R
FT INDIANTOWN  MOSUNNY   73  59  62 NE3       30.19R
CAPITAL CITY   MOSUNNY   73  60  63 CALM      30.19R
HARRISBURG     MOSUNNY   72  61  68 CALM      30.18S
YORK           SUNNY     72  61  68 CALM      30.19S
$$

PAZ038>040-043-044-047-048-054-055-060>062-067>071-301400-
EASTERN PENNSYLVANIA

CITY           SKY/WX    TMP DP  RH WIND       PRES   REMARKS
SCRANTON       SUNNY     66  58  75 N3        30.20F
MOUNT POCONO   SUNNY     65  54  67 SE8       30.23S
ALLENTOWN      MOSUNNY   69  59  70 CALM      30.20R
QUAKERTOWN*    MOSUNNY   72  59  64 NE3       30.20R
READING        SUNNY     70  60  70 N7        30.18S
LANCASTER      SUNNY     74  63  68 VRB3      30.18S
COATESVILLE    SUNNY     72  61  68 CALM      30.20S
POTTSTOWN      MOSUNNY   72  60  66 NE3       30.20R
BLUE BELL      SUNNY     72  61  68 NE5       30.17R
DOYLESTOWN     MOSUNNY   74  62  66 NE3       30.17R
WILLOW GROVE   NOT AVBL
NORTH PHILA    SUNNY     76  63  64 E6        30.17S
PHILADELPHIA   MOSUNNY   77  63  61 NE9       30.16R
$$




USA.gov is the U.S. government's official web portal to all federal, state and local government web resources and services.